Weather in Dzhigda

Russia / Khabarovsk Krai     57°32′45″N   135°53′10″E
temp.,
°C
wind,
m/s
gust,
m/s
humid.,
%
clouds,
%
prec.,
mm/h
press.,
hPa
HPBL,
m
27 february, sat
sat2701:00−31s11950 0.0 103419
04:00−32sse01966 0.0 103219
07:00−33sse11976 0.0 103119
10:00−28ene119512 0.0 1029103
13:00−21ne119046 0.0 1026297
16:00−20ne129159 0.0 1021321
19:00−24ne2297100 0.0 102023
22:00−24ne1197100 0.0 101820
28 february, sun
sun2801:00−22ne1198100 0.1 101671
04:00−20ne2299100 1.3 1014105
07:00−19nne1299100 0.9 101581
10:00−19nw2397100 1.6 1016324
13:00−19nw4691100 0.3 1018935
16:00−19nw5789100 0.5 1019928
19:00−22nw4993100 0.2 1023811
22:00−24wnw4992100 0.3 1025801
1 march, mon
mon101:00−26wnw3993100 0.0 1026820
04:00−27wnw21092100 0.1 1028598
07:00−29w2396100 0.0 102868
10:00−27wnw4889100 0.0 1028949
13:00−25nw4884100 0.1 10271162
16:00−24nw4784100 0.1 10251295
19:00−26wnw3894100 0.1 1026471
22:00−26wnw4991100 0.1 1026906
2 march, tue
tue201:00−27wnw3993100 0.1 1026773
04:00−28wnw3996100 0.1 1026619
07:00−28w3896100 0.1 1026576
10:00−27wnw4891100 0.2 1026989
13:00−26wnw4787100 0.1 10251180
16:00−25nw4686100 0.2 10251146
19:00−27w2295100 0.1 102561
22:00−29wsw1197100 0.1 102719
3 march, wed
wed301:00−30wsw1198100 0.0 102619
04:00−31sw1198100 0.1 102619
07:00−34sw119899 0.0 102619
10:00−31sw129596 0.0 1025149
13:00−25w118780 0.0 1021467
16:00−24n118386 0.0 1019573
19:00−31ese009243 0.0 101919
22:00−34ssw119321 0.0 101919